Location: Colle Santa Colomba
(42.0333°N, 12.5667°E)
Time: 02:07:09
(UTC+00:00)

CZ-4B DEB - Pass Details

Date: 25 October 2021
Orbit: 840 x 861 km, 99.1° (Epoch: 05 December)

Event Time Altitude Azimuth Distance (km) Brightness Sun altitude
Rises 16:35:05 0° 160° (SSE) 3,416 7.3 -4.8°
Reaches altitude 10° 16:37:26 10° 159° (SSE) 2,486 6.6 -5.2°
Maximum altitude 16:42:57 80° 74° (ENE) 879 4.2 -6.2°
Drops below altitude 10° 16:48:32 10° 348° (NNW) 2,509 6.7 -7.3°
Sets 16:50:55 0° 348° (NNW) 3,450 7.4 -7.7°
